Tracking 18794 objects as of 21-September-2017
HD Live streaming from Space Station
objects crossing your sky now

MIDAS 4

Track MIDAS 4 now!
10-day predictions
MIDAS 4 is classified as:


NORAD ID: 192
Int'l Code: 1961-028A
Perigee: 3,493.0 km
Apogee: 3,771.2 km
Inclination: 95.9 °
Period: 165.9 minutes
Semi major axis: 10003 km
RCS: 10.3526 m2 (large)
Launch date: October 21, 1961
Source: United States (US)
Launch site: AIR FORCE WESTERN TEST RANGE (AFWTR)
aabbcc
Your satellite tracking list
Your tracking list is empty





NASA's NSSDC Master Catalog

Two Line Element Set (TLE):
1   192U 61028A   17263.75787937 +.00000000 +00000-0 +16699-2 0  9994
2   192 095.8514 272.2731 0139052 209.9734 149.3100 08.67758434771324
Source of the keplerian elements: AFSPC